Flag for U.S.A. Weather past 2 weeks in Des Moines, Iowa, U.S.A.

Now
73 °F

Passing clouds.


Feels Like: 75 °F
Forecast: 67 / 91 °F
Wind: No wind

Location: Des Moines International Airport

Current Time: Aug 1, 2015 at 3:34:45 AM

Latest Report: Aug 1, 2015 at 2:54 AM


Visibility: 10 mi

Pressure: 30.01 "Hg

Humidity: 74%

Dew point: 64 °F

Location of Des MoinesLocation

Historic Weather in Des Moines — Graph

°F

Des Moines temperature yesterday

Maximum temperature yesterday: 89 °F (at 1:54 PM)
Minimum temperature yesterday: 69 °F (at 5:54 AM)
Average temperature yesterday: 79 °F

Past Weeks' High & Low Weather Summary

 TemperatureHumidityPressure
High95 °F (Jul 17, 3:54 PM)94% (Jul 28, 10:59 PM)30.14 "Hg (Jul 28, 10:59 PM)
Low63 °F (Jul 21, 4:54 AM)29% (Jul 30, 2:54 PM)29.69 "Hg (Jul 17, 8:54 PM)
Average78 °F68%29.92 "Hg
* Reported Jul 17 1:54 AM — Aug 1 1:54 AM, Des Moines, Weather by CustomWeather, © 2015

Note: Actual official high and low records may vary slightly from our data, if they occured in-between our weather recording intervals... More about our weather records

Advertising

Des Moines weather history for previous 24 hours

 ConditionsComfort  
Time TempWeatherWind HumidityBarometerVisibility
1:54 AM
Sat, Aug 1
72 °FPassing clouds.3 mph76%30.03 "Hg10 mi
12:54 AM74 °FPartly cloudy.No wind71%30.05 "Hg10 mi
11:54 PM
Fri, Jul 31
76 °FPassing clouds.5 mph64%30.05 "Hg10 mi
10:54 PM75 °FPassing clouds.5 mph66%30.03 "Hg10 mi
9:54 PM79 °FPassing clouds.6 mph56%30.03 "Hg10 mi
8:54 PM81 °FScattered clouds.6 mph51%30.01 "Hg10 mi
7:54 PM84 °FScattered clouds.6 mph43%30.01 "Hg10 mi
6:54 PM86 °FScattered clouds.5 mph40%30.01 "Hg10 mi
5:54 PM87 °FScattered clouds.8 mph39%30.00 "Hg10 mi
4:54 PM87 °FBroken clouds.6 mph48%30.03 "Hg10 mi
3:54 PM89 °FScattered clouds.9 mph45%30.03 "Hg10 mi
2:54 PM88 °FScattered clouds.12 mph42%30.05 "Hg10 mi
1:54 PM89 °FPassing clouds.5 mph39%30.06 "Hg10 mi
12:54 PM88 °FPassing clouds.3 mph45%30.07 "Hg10 mi
11:54 AM87 °FPassing clouds.3 mph48%30.08 "Hg10 mi
10:54 AM83 °FPassing clouds.No wind59%30.09 "Hg10 mi
9:54 AM80 °FPassing clouds.5 mph64%30.10 "Hg10 mi
8:54 AM77 °FPassing clouds.6 mph66%30.11 "Hg10 mi
7:54 AM74 °FPassing clouds.5 mph71%30.11 "Hg10 mi
6:54 AM71 °FPassing clouds.No wind76%30.09 "Hg10 mi
5:54 AM69 °FPassing clouds.5 mph81%30.09 "Hg10 mi
4:54 AM71 °FPassing clouds.5 mph76%30.07 "Hg10 mi
3:54 AM71 °FPassing clouds.5 mph78%30.08 "Hg10 mi
Weather by CustomWeather, © 2015

See weather overviewHow to use our weather pages